GFSSW_850_rhum_276.txt.gz
RH
6 6 6 6 7 6 6 6 6 6 6 11 22 16 16 17 18 12 14 23 20 14 11 15 19 25 27 29 33 32 46 46 42 38 25 13 18 14 16 17 16 18 58 84 83
6 7 7 8 8 8 8 7 7 7 7 8 30 11 15 18 11 11 22 17 16 12 8 12 16 19 17 18 19 36 47 40 19 17 15 13 13 15 17 16 15 11 12 52 79
8 9 9 9 9 9 9 8 8 7 7 6 35 31 41 30 18 31 23 17 11 7 8 8 11 13 16 16 18 19 29 19 15 18 14 12 11 15 16 17 14 15 12 13 15
11 12 11 11 10 10 10 9 8 7 8 20 13 40 38 38 31 29 23 24 20 14 4 4 8 15 23 23 19 22 19 18 17 16 15 14 12 16 17 17 15 14 12 10 10
14 13 13 13 12 12 11 9 8 9 19 27 23 20 17 24 31 31 26 28 23 15 12 12 10 16 27 22 20 22 22 18 18 16 17 13 14 17 19 16 15 15 13 14 12
15 15 15 14 14 12 11 9 9 18 20 26 25 20 17 33 25 24 25 18 27 22 23 20 21 18 20 23 27 24 22 20 20 17 18 16 16 18 19 17 20 24 22 19 20
17 17 17 16 14 12 10 7 22 26 25 26 19 18 22 33 22 22 22 22 28 25 23 20 22 22 24 26 27 22 25 25 25 20 21 16 21 24 21 21 32 40 42 31 26
19 18 18 16 14 10 7 7 24 25 23 20 19 17 35 23 19 15 19 22 28 26 21 22 20 18 24 27 26 31 32 35 26 27 24 19 31 23 22 38 44 56 49 43 38
20 20 18 15 10 8 6 15 26 28 22 21 17 20 32 22 18 22 16 20 24 22 21 26 20 28 23 33 39 38 40 35 31 32 28 26 32 25 22 41 51 42 56 51 37
21 19 16 12 9 9 15 32 33 29 26 21 22 22 28 21 18 20 15 13 21 16 17 24 31 41 42 38 52 41 39 35 35 31 38 37 37 33 26 50 53 52 48 60 58
21 18 14 10 14 22 30 28 20 16 21 24 26 28 25 20 19 22 16 17 20 26 42 33 50 58 51 48 36 34 40 42 37 32 39 40 37 36 29 50 57 56 62 62 64
22 17 13 11 21 25 27 21 26 22 24 19 22 25 27 22 21 21 18 24 33 42 35 51 60 48 34 36 44 45 50 51 43 38 35 41 40 40 56 62 62 64 61 70 65
22 16 13 10 19 23 23 24 25 27 25 22 19 19 20 21 27 23 24 29 38 50 47 61 48 31 34 38 44 50 42 44 47 44 35 41 46 80 62 57 61 66 70 68 76
21 16 14 14 15 22 30 27 33 35 55 40 28 17 18 20 26 28 26 27 37 48 41 46 33 35 41 40 39 56 35 37 43 49 53 45 70 62 84 71 75 67 69 67 72
20 16 16 15 16 20 30 33 45 54 40 32 22 18 19 19 22 31 32 28 45 47 43 44 37 38 40 40 31 44 36 41 43 54 58 54 67 57 81 87 76 68 65 68 62
20 16 19 27 16 18 28 39 49 67 32 30 20 22 24 22 24 28 28 30 36 41 40 45 38 34 34 33 31 36 46 50 65 74 88 62 58 61 88 86 74 61 62 68 59
22 25 31 27 20 12 31 39 69 56 30 31 24 26 27 28 34 39 46 56 56 48 60 39 39 33 33 38 33 47 66 79 63 84 78 58 66 64 74 66 54 37 44 58 69
31 31 32 19 15 14 35 68 36 42 42 24 22 30 33 28 31 47 54 69 46 55 76 62 47 40 33 35 40 45 67 84 71 97 83 55 68 79 63 53 27 29 35 59 75
29 35 43 22 32 29 36 70 56 46 36 24 22 30 32 31 33 36 48 54 46 42 60 71 47 37 38 37 40 47 74 56 77 76 85 69 68 75 69 61 27 29 28 33 70
31 29 48 40 52 48 67 62 41 40 23 25 31 31 40 35 33 33 43 44 42 36 39 49 55 45 41 37 49 49 56 72 90 99 98 73 60 76 57 41 34 32 33 34 41
24 32 62 66 57 41 75 68 46 30 28 30 34 38 38 38 36 35 45 42 42 48 42 57 65 43 40 50 65 57 68 82 76 90 96 98 64 55 54 40 39 33 35 38 43
56 67 65 63 48 86 84 52 30 31 29 33 35 38 41 36 38 39 48 43 37 39 48 55 79 75 49 50 56 54 61 63 82 69 88 80 70 33 35 36 40 41 41 47 73
61 56 60 50 81 98 63 42 33 31 33 35 37 34 33 39 41 41 42 39 36 40 57 58 71 81 38 47 63 66 81 87 85 84 80 94 67 32 38 53 49 55 70 71 70
54 84 60 61 54 62 50 45 44 36 35 33 38 33 38 39 43 49 50 44 35 34 38 42 69 63 56 44 67 65 81 88 76 98 85 80 55 45 54 75 73 72 68 63 63
59 62 54 90 89 57 46 50 49 43 34 32 34 37 41 50 47 49 47 48 42 51 54 52 74 80 70 58 59 57 69 71 82 78 81 56 64 54 58 89 82 70 63 63 62
46 64 62 68 75 63 64 53 51 46 39 38 42 44 45 58 53 62 54 48 46 45 48 57 62 69 80 56 60 61 56 58 63 65 69 66 69 50 54 72 70 61 59 60 56
55 58 52 86 76 75 73 60 52 40 39 34 38 50 51 44 39 40 39 39 41 50 56 62 80 82 74 63 66 74 57 52 55 60 70 93 70 56 81 70 62 58 58 57 54

GFSSW_850_rhum_279.txt.gz
RH
6 6 7 7 7 7 7 7 6 6 12 23 17 17 13 12 11 9 11 23 16 10 10 17 27 28 26 28 30 31 34 35 21 22 15 14 14 17 14 15 14 15 19 84 98
7 7 8 8 8 8 8 8 7 6 7 24 13 15 20 22 10 9 23 18 9 5 7 14 21 21 19 16 21 32 30 21 16 16 13 16 16 16 14 14 15 15 11 13 28
8 9 10 10 10 10 9 9 8 7 6 22 16 20 33 30 12 26 21 19 11 4 5 12 15 17 16 14 19 17 18 18 17 20 15 16 17 18 16 16 18 19 20 12 11
10 11 12 12 12 11 10 9 8 6 7 7 16 29 27 31 25 27 24 26 19 8 3 6 9 12 20 19 19 20 19 18 19 17 15 15 18 19 20 22 24 29 28 15 13
12 13 14 14 13 12 10 9 7 8 24 24 21 15 12 17 29 25 18 26 20 10 5 5 7 14 19 20 20 21 22 20 18 18 17 19 20 20 27 34 28 26 18 21 21
14 15 15 15 14 12 10 8 8 10 21 25 19 19 15 29 23 23 21 27 20 14 11 9 16 17 24 28 23 24 24 24 24 21 20 18 21 21 31 42 40 30 39 31 26
16 18 17 16 14 11 8 9 10 17 24 24 21 14 14 26 19 22 24 28 20 18 17 21 19 18 24 25 24 23 21 21 28 24 21 20 20 25 36 49 48 51 45 33 37
18 19 18 15 12 9 8 16 18 21 19 20 16 16 23 21 16 18 27 27 19 18 20 18 18 21 28 24 24 24 24 25 26 28 23 18 24 25 44 41 48 54 56 53 35
19 19 17 13 10 7 10 18 19 20 18 17 17 18 25 17 16 17 20 23 20 19 21 17 15 27 23 25 27 26 30 30 27 32 24 20 24 26 50 45 49 53 59 57 47
20 19 15 11 8 10 20 20 21 19 17 17 20 17 20 22 21 16 19 19 16 15 16 26 32 28 26 21 27 32 33 33 34 32 27 27 28 31 53 51 53 52 54 57 60
20 18 13 12 14 22 20 22 16 17 25 27 25 23 27 20 19 16 15 15 18 23 35 34 34 38 36 33 30 34 35 34 33 31 30 32 38 47 54 54 58 59 55 59 62
20 17 15 19 26 26 20 17 14 19 23 24 24 22 21 20 22 21 17 20 40 41 37 33 44 34 29 35 29 29 33 34 34 31 30 32 54 50 53 61 66 64 60 60 63
20 17 18 24 29 27 18 14 15 17 20 21 20 21 22 19 31 27 24 31 35 39 36 40 35 29 29 32 35 37 32 34 33 32 34 36 40 57 56 56 54 57 62 60 70
20 16 19 25 26 23 20 15 14 17 48 38 28 18 19 21 32 26 27 27 39 41 39 33 31 28 32 33 31 37 31 33 33 35 33 41 28 45 59 49 39 44 57 58 65
20 15 21 22 18 24 23 20 21 26 47 28 22 20 21 21 25 30 32 29 43 44 36 41 33 32 26 35 28 30 35 40 42 45 43 42 42 39 53 51 38 32 38 48 62
19 16 19 21 18 22 23 27 35 66 37 30 21 23 24 24 30 27 28 30 32 34 36 42 36 32 31 32 30 32 43 39 51 54 57 52 42 38 50 55 30 25 30 41 57
19 19 24 20 18 26 27 35 66 59 33 30 26 26 28 29 39 37 42 45 43 48 45 33 35 33 34 28 26 33 40 46 34 54 52 46 36 46 45 43 35 28 28 35 49
23 20 29 22 22 30 35 60 42 41 41 25 26 30 32 29 38 47 47 46 44 46 52 36 35 38 33 33 37 37 48 57 30 42 43 39 32 52 48 48 32 29 29 31 40
25 31 25 20 21 35 32 67 55 43 36 26 25 33 32 31 35 41 48 47 43 41 46 50 44 37 36 46 39 39 64 52 66 64 65 46 48 46 51 43 46 32 28 32 40
33 35 30 35 30 43 64 54 40 38 26 24 30 33 37 33 32 34 42 45 42 40 44 44 47 42 39 39 45 42 52 54 72 61 51 42 41 34 25 26 28 27 36 41 47
32 38 51 56 44 38 74 61 48 31 27 28 35 36 36 38 35 34 42 45 41 47 44 48 53 43 39 40 42 39 49 69 69 73 59 48 27 35 28 28 35 46 48 53 65
32 64 68 65 52 73 79 52 30 34 31 34 35 40 38 36 36 41 44 42 39 38 45 54 66 51 44 46 53 45 48 47 57 64 69 52 38 25 30 37 59 60 61 69 77
47 66 71 52 82 85 59 47 32 32 34 36 40 36 36 37 40 42 42 41 38 41 48 51 61 60 28 45 60 63 78 78 77 64 63 75 40 30 32 40 56 71 72 73 64
41 86 58 57 51 59 53 48 47 36 36 35 39 35 40 41 45 48 44 44 37 36 38 41 58 61 38 38 61 78 78 81 75 80 66 60 40 33 34 40 47 63 68 60 57
55 58 51 85 85 54 49 50 48 44 35 32 36 38 41 51 47 49 49 47 44 63 54 49 70 70 65 46 44 44 58 63 79 65 61 36 46 38 37 42 49 70 63 57 54
45 50 56 74 64 56 60 51 49 42 40 39 43 43 44 56 50 64 51 47 46 47 52 56 56 60 71 46 50 53 45 47 50 46 52 46 47 36 42 50 64 65 58 59 50
50 43 45 86 72 68 68 56 48 39 40 35 39 50 50 43 37 38 38 38 40 48 48 56 67 67 60 53 56 64 50 43 40 41 50 68 49 41 50 54 56 55 55 50 45

GFSSW_850_rhum_285.txt.gz
RH
5 6 6 6 6 6 6 6 13 16 20 16 11 12 8 14 14 17 11 18 9 13 22 19 19 17 14 14 16 14 14 17 14 16 14 12 13 14 18 20 22 23 24 28 41
6 7 7 7 7 7 7 7 9 17 14 12 10 14 10 11 12 13 18 10 4 11 19 16 15 14 14 12 12 9 12 13 12 12 13 14 13 15 19 21 22 23 24 25 29
7 8 8 8 8 8 8 7 7 12 16 11 10 12 13 9 11 16 12 7 4 12 17 17 13 12 12 12 12 10 12 11 11 11 11 14 18 19 19 22 23 24 24 25 29
8 9 9 9 9 9 8 8 7 6 11 17 12 15 15 21 14 19 11 8 8 8 12 11 11 11 11 12 11 12 11 11 11 12 13 14 19 21 21 23 23 24 25 24 28
9 10 11 10 10 10 8 13 17 12 11 13 8 12 14 15 18 21 18 15 14 11 10 9 9 10 11 11 11 12 12 12 12 12 13 16 20 22 22 22 23 22 24 26 28
10 12 12 12 11 9 10 23 23 18 14 10 10 15 13 16 19 20 16 14 14 12 13 11 11 12 12 12 12 12 11 11 11 11 12 13 18 18 21 22 21 22 20 24 27
12 13 14 13 11 10 13 23 21 18 14 10 10 16 17 17 18 20 16 14 14 15 14 14 14 12 13 12 12 11 12 11 11 10 10 11 19 21 19 20 21 21 21 22 26
14 15 15 13 10 14 20 23 20 17 14 11 14 18 16 16 16 20 15 14 13 13 17 16 14 13 14 13 12 10 9 10 11 11 9 9 22 23 20 20 21 21 23 24 25
16 16 15 12 11 18 24 20 17 14 14 12 23 16 16 14 15 18 18 15 13 13 13 12 11 12 12 9 8 7 8 11 12 10 8 9 22 24 23 22 23 22 23 25 26
17 17 15 10 19 21 23 20 18 21 16 19 17 20 16 16 16 16 20 18 14 12 11 10 8 7 6 6 7 9 10 12 12 13 10 14 22 23 24 25 25 24 23 25 27
18 17 13 9 22 24 22 23 25 19 19 18 17 16 16 15 17 15 20 18 15 13 14 12 13 14 13 10 8 8 9 11 12 12 11 16 21 23 26 26 26 24 26 28 28
18 16 11 12 24 24 26 25 30 18 18 17 17 19 18 18 15 20 17 16 16 15 13 14 19 15 10 9 8 8 11 13 12 13 14 15 22 23 25 26 26 25 24 29 31
18 14 11 22 27 24 46 37 29 28 18 19 15 16 19 19 20 20 21 17 14 17 16 18 15 11 13 11 11 12 13 12 12 13 14 14 21 24 24 25 19 20 22 24 29
18 13 19 30 28 45 38 19 21 28 27 19 14 14 16 18 21 21 21 20 20 16 14 14 11 12 12 14 17 14 12 13 12 15 14 15 17 22 22 19 17 17 20 23 27
17 14 24 31 37 32 39 20 15 24 94 22 15 16 15 16 17 18 23 19 19 20 23 19 14 11 13 16 13 18 15 15 14 15 16 15 14 25 19 19 19 16 19 23 25
17 17 29 32 36 40 24 17 21 62 98 21 14 14 15 16 15 17 20 20 16 17 19 21 17 16 16 14 13 19 19 19 19 18 29 20 16 16 18 19 15 17 18 21 23
17 18 29 38 41 22 16 27 73 98 21 19 15 14 14 15 16 14 17 22 27 58 30 19 19 17 18 15 12 18 26 48 37 42 38 23 18 29 22 17 18 20 21 24 22
18 18 26 26 31 19 20 38 95 36 20 12 13 14 17 17 20 20 20 25 20 22 22 27 38 21 20 22 19 19 25 63 67 25 17 16 15 44 16 17 21 23 20 21 28
19 22 24 18 17 20 36 98 83 21 17 14 13 16 18 20 21 21 21 24 23 23 37 29 31 20 22 20 23 22 36 28 46 31 25 12 19 24 15 15 16 18 25 29 33
55 54 63 16 21 35 67 76 24 17 14 13 18 15 19 17 21 23 24 22 24 24 33 27 35 21 19 21 24 30 27 52 65 76 64 19 15 20 18 16 19 23 28 32 36
54 40 43 21 31 44 98 42 26 16 14 15 17 19 15 18 17 19 24 25 23 25 24 24 42 30 22 25 25 28 36 40 42 44 58 32 18 16 18 20 23 26 31 33 35
50 78 38 36 62 78 74 24 21 18 20 20 16 18 18 18 18 20 24 24 24 22 30 33 69 34 28 26 24 21 27 34 64 87 40 34 23 13 19 21 24 27 30 33 35
54 59 48 59 99 80 31 25 20 20 19 20 22 20 20 19 24 22 26 27 23 24 28 27 48 54 32 38 32 38 53 99 98 37 43 51 27 17 18 18 20 24 27 31 34
60 100 51 56 40 37 30 27 29 21 21 21 20 21 22 24 22 28 34 31 26 26 30 28 39 87 54 78 69 92 89 89 84 64 48 31 25 17 16 16 17 22 27 30 34
52 81 61 98 89 32 22 21 27 31 25 23 24 20 21 30 27 28 29 34 30 37 30 33 78 61 60 31 21 26 57 44 72 47 49 18 14 13 13 13 17 22 25 27 28
44 78 52 38 32 28 30 27 24 20 24 24 23 20 20 30 26 36 31 30 32 38 34 36 64 35 44 22 19 22 19 19 24 34 33 28 25 16 16 17 19 20 25 26 28
58 49 52 36 30 43 41 25 22 23 29 20 20 21 24 22 23 23 24 24 26 37 36 42 54 47 52 29 29 47 27 21 19 18 24 35 27 19 19 19 20 25 26 28 28

GFSSW_850_rhum_288.txt.gz
RH
5 6 6 6 6 5 5 6 16 18 13 8 8 12 15 14 12 10 6 10 7 18 17 16 17 15 12 11 12 12 16 16 16 16 15 14 19 20 22 23 24 25 28 40 54
6 6 6 6 7 6 6 6 15 17 14 9 8 11 11 14 13 12 9 5 5 16 16 14 12 13 12 9 10 9 14 14 13 14 16 16 17 20 21 22 23 23 26 30 34
6 7 7 7 8 7 7 7 12 14 13 9 9 10 12 13 24 15 8 4 6 13 14 13 11 11 11 10 9 10 14 11 11 14 17 18 19 21 21 22 23 23 25 30 33
7 8 8 8 8 8 8 7 7 11 15 12 15 14 14 16 16 17 11 12 10 9 10 10 10 10 10 11 10 11 10 11 12 13 16 19 20 21 22 22 21 24 25 28 32
8 9 9 10 10 9 8 7 7 7 12 9 12 15 14 14 17 14 12 12 10 8 9 9 10 9 10 11 10 11 11 12 12 14 16 18 20 20 20 21 20 20 24 27 31
9 10 10 11 10 9 8 11 16 13 12 13 17 16 16 14 17 16 12 11 12 10 10 10 10 10 10 10 10 11 11 10 10 12 14 17 17 18 19 19 19 20 21 24 29
11 11 12 12 11 10 9 14 13 12 14 15 15 18 15 15 15 16 12 12 12 13 12 12 11 11 11 11 10 10 10 9 9 9 10 16 21 18 18 19 20 21 22 24 27
12 12 13 12 10 11 13 12 14 13 12 14 17 16 14 14 14 15 11 11 11 13 13 12 11 12 12 11 9 9 10 13 9 9 8 8 27 19 18 19 20 21 23 25 28
13 14 14 13 10 13 15 13 14 12 11 20 23 16 13 13 12 15 16 13 11 10 10 10 10 12 11 11 10 9 11 13 11 8 7 9 24 20 20 21 21 21 23 24 26
15 15 14 12 13 17 15 12 14 14 16 17 15 19 13 14 13 13 16 15 11 11 10 9 9 9 7 7 9 9 10 12 13 11 11 19 23 21 22 23 22 23 25 26 26
16 16 14 10 17 18 14 21 26 20 18 16 15 14 13 15 16 12 17 14 12 11 12 9 11 13 10 8 7 7 9 11 10 10 12 17 23 23 23 23 22 22 25 28 28
17 17 13 12 19 17 31 32 21 18 16 16 16 16 14 14 16 18 16 15 12 13 11 13 17 11 8 7 7 8 10 12 11 11 14 16 22 22 24 22 22 20 22 25 28
18 16 11 18 22 20 46 36 31 19 17 14 13 15 16 16 16 18 17 14 14 16 14 17 12 10 9 10 10 12 13 11 12 11 12 12 22 24 22 20 17 18 20 22 25
18 15 12 24 25 24 47 29 20 28 30 17 12 12 14 16 16 17 16 17 12 14 12 12 10 10 11 13 15 14 10 10 10 14 16 12 21 23 23 20 15 16 19 22 24
18 15 18 26 32 39 38 26 19 28 92 17 12 13 12 15 15 16 19 17 17 17 21 18 12 10 12 13 12 18 12 14 12 15 15 12 11 23 18 18 18 15 17 19 21
18 18 29 41 49 42 37 17 13 76 90 19 12 13 13 12 13 14 16 15 16 18 16 17 14 14 13 11 12 18 17 17 17 18 30 17 12 24 20 16 13 16 17 20 22
18 22 32 45 54 37 24 16 84 99 22 18 14 12 13 13 12 13 16 21 26 57 27 17 17 14 18 14 12 17 26 63 42 46 52 20 17 31 19 16 16 18 20 20 26
18 28 42 55 50 28 18 47 99 47 22 12 12 12 14 13 14 15 18 22 19 22 26 30 35 20 16 20 18 18 26 78 75 42 24 18 14 45 15 15 18 20 18 24 29
21 33 44 36 34 17 45 95 87 30 14 13 12 15 16 18 18 18 18 23 20 23 38 34 29 18 17 17 22 23 38 27 42 31 31 11 26 21 13 14 14 17 22 26 30
41 34 65 26 22 34 77 90 27 19 12 11 16 13 19 18 20 21 22 20 22 24 31 28 34 18 17 17 21 32 24 51 78 72 60 23 17 24 19 15 15 19 24 28 31
59 47 58 18 20 62 99 57 24 15 12 13 15 15 14 16 16 20 24 21 18 22 21 28 45 25 19 21 27 29 34 43 43 47 62 38 22 16 17 16 19 20 25 29 30
53 83 32 22 59 87 90 20 18 13 15 17 15 15 14 15 17 19 24 22 19 19 26 33 55 38 26 23 21 20 27 37 81 79 44 37 30 15 19 20 19 22 24 27 30
54 66 57 70 100 86 32 22 17 15 17 19 19 16 16 16 20 20 28 23 19 21 28 26 49 60 31 36 27 36 63 97 95 46 44 54 36 17 19 18 17 19 21 24 28
53 98 54 65 59 48 33 26 22 18 17 17 18 19 18 22 20 25 32 22 20 28 28 24 42 93 64 80 77 82 88 96 85 62 47 38 27 19 17 17 15 16 19 23 28
64 86 59 99 88 44 29 25 23 23 20 20 21 20 20 30 27 30 29 27 24 31 24 36 77 66 68 36 28 39 52 48 74 49 53 22 20 18 17 17 17 17 17 20 22
57 64 51 50 48 39 36 26 24 22 24 25 24 18 20 34 26 37 32 31 30 34 30 35 61 36 50 26 20 21 18 30 36 39 32 30 31 21 19 17 17 18 20 21 26
57 48 43 44 39 50 47 28 22 18 21 20 19 19 23 22 21 21 28 25 26 35 36 42 58 48 47 29 32 55 34 24 20 17 25 37 29 20 20 19 19 21 22 23 26